Find STARLINK-37430

NORAD ID: 70559 Constellation: starlink operational
LEOCIRCULARRETROGRADE

Live-Position

3D-Globus wird geladen...

Über STARLINK-37430

Beschreibung wird geladen...

Nächste Überflüge

Passes for default location (London). Set your location on the main map for personalized predictions.

Höhenverlauf

Loading altitude history...

Zweizeiliger Elementsatz

1 70559C 26094AA 26118.87826389 .00183160 00000+0 18920-3 0 1180
2 70559 97.2844 132.1935 0004121 264.2966 45.2407 16.10549405 17
Epoch: 28. Apr. 2026 • Age: 29 hours